When you browse on this site, cookies collect data to enhance your experience and personalize the content and advertising you see.
Visit our Privacy Policy to learn more. By continuing to use the site, you agree to this use of cookies and data.
  • In Portugal
  • List of Countries
  • For 7 days
  • Water Temperature
  • Satellite Maps
  • Weather Map
  • Weather Widgets
  • user-avatar
    Login

    Hourly Weather Golden Sands

    Today, 24 March, Sunday

    Time Temperature Precipitation Wind Pressure Humidity
    00:00 +6°C° 0 mm 2 mps 767 mmHg 64%
    01:00 +6°C° 0 mm 2 mps 767 mmHg 63%
    02:00 +6°C° 0 mm 2 mps 767 mmHg 63%
    03:00 +5°C° 0 mm 3 mps 767 mmHg 60%
    04:00 +4°C° 0 mm 3 mps 766 mmHg 56%
    05:00 +4°C° 0 mm 4 mps 766 mmHg 53%
    06:00 +5°C° 0 mm 4 mps 766 mmHg 53%
    07:00 +5°C° 0 mm 5 mps 766 mmHg 54%
    08:00 +6°C° 0 mm 5 mps 766 mmHg 52%
    09:00 +7°C° 0 mm 5 mps 766 mmHg 50%
    10:00 +8°C° 0 mm 4 mps 766 mmHg 48%
    11:00 +10°C° 0 mm 4 mps 766 mmHg 46%
    12:00 +10°C° 0 mm 4 mps 766 mmHg 46%
    13:00 +11°C° 0 mm 4 mps 766 mmHg 46%
    14:00 +11°C° 0 mm 4 mps 766 mmHg 47%
    15:00 +10°C° 0 mm 4 mps 765 mmHg 51%
    16:00 +10°C° 0 mm 4 mps 765 mmHg 56%
    17:00 +8°C° 0 mm 4 mps 765 mmHg 60%
    18:00 +8°C° 0 mm 3 mps 765 mmHg 64%
    19:00 +7°C° 0 mm 3 mps 764 mmHg 68%
    20:00 +7°C° 0 mm 3 mps 764 mmHg 71%
    21:00 +7°C° 0 mm 3 mps 764 mmHg 71%
    22:00 +7°C° 0 mm 3 mps 764 mmHg 71%
    23:00 +7°C° 0 mm 3 mps 764 mmHg 71%

    Tomorrow, 25 March, Monday

    Time Temperature Precipitation Wind Pressure Humidity
    00:00 +6°C° 0 mm 4 mps 764 mmHg 72%
    01:00 +6°C° 0 mm 4 mps 764 mmHg 72%
    02:00 +6°C° 0 mm 4 mps 764 mmHg 72%
    03:00 +5°C° 0 mm 4 mps 763 mmHg 72%
    04:00 +5°C° 0 mm 4 mps 763 mmHg 72%
    05:00 +5°C° 0 mm 4 mps 762 mmHg 72%
    06:00 +6°C° 0 mm 4 mps 762 mmHg 69%
    07:00 +7°C° 0 mm 4 mps 762 mmHg 66%
    08:00 +8°C° 0 mm 4 mps 762 mmHg 63%
    09:00 +9°C° 0 mm 5 mps 761 mmHg 58%
    10:00 +10°C° 0 mm 5 mps 761 mmHg 54%
    11:00 +13°C° 0 mm 5 mps 761 mmHg 49%
    12:00 +13°C° 0 mm 6 mps 760 mmHg 49%
    13:00 +13°C° 0 mm 6 mps 760 mmHg 50%
    14:00 +12°C° 0 mm 7 mps 759 mmHg 50%
    15:00 +12°C° 0 mm 7 mps 759 mmHg 54%
    16:00 +11°C° 0 mm 7 mps 758 mmHg 58%
    17:00 +10°C° 0 mm 7 mps 758 mmHg 61%
    18:00 +9°C° 0 mm 7 mps 758 mmHg 65%
    19:00 +9°C° 0 mm 6 mps 758 mmHg 68%
    20:00 +8°C° 0 mm 6 mps 758 mmHg 71%
    21:00 +8°C° 0 mm 6 mps 758 mmHg 73%
    22:00 +8°C° 0 mm 6 mps 757 mmHg 75%
    23:00 +8°C° 0 mm 6 mps 757 mmHg 78%

    Day after tomorrow, 26 March, Tuesday

    Time Temperature Precipitation Wind Pressure Humidity
    00:00 +8°C° 0 mm 6 mps 757 mmHg 80%
    01:00 +7°C° 0 mm 6 mps 757 mmHg 82%
    02:00 +7°C° 0 mm 5 mps 757 mmHg 85%
    03:00 +7°C° 0 mm 5 mps 757 mmHg 85%
    04:00 +7°C° 0 mm 5 mps 757 mmHg 86%
    05:00 +7°C° 0 mm 4 mps 757 mmHg 87%
    06:00 +7°C° 0 mm 4 mps 757 mmHg 84%
    07:00 +8°C° 0 mm 4 mps 758 mmHg 80%
    08:00 +10°C° 0 mm 4 mps 758 mmHg 77%
    09:00 +11°C° 0 mm 3 mps 758 mmHg 71%
    10:00 +12°C° 0 mm 3 mps 758 mmHg 66%
    11:00 +14°C° 0 mm 2 mps 759 mmHg 61%
    12:00 +15°C° 0 mm 2 mps 759 mmHg 59%
    13:00 +15°C° 0 mm 2 mps 759 mmHg 58%
    14:00 +16°C° 0 mm 3 mps 759 mmHg 56%
    15:00 +14°C° 0 mm 4 mps 759 mmHg 61%
    16:00 +13°C° 0 mm 5 mps 759 mmHg 65%
    17:00 +11°C° 0 mm 6 mps 760 mmHg 70%
    18:00 +10°C° 0 mm 7 mps 760 mmHg 72%
    19:00 +9°C° 0 mm 7 mps 761 mmHg 75%
    20:00 +8°C° 0 mm 7 mps 762 mmHg 77%
    21:00 +8°C° 0 mm 6 mps 762 mmHg 77%
    22:00 +8°C° 0 mm 5 mps 762 mmHg 78%
    23:00 +8°C° 0 mm 5 mps 762 mmHg 78%

    27 March, Wednesday

    Time Temperature Precipitation Wind Pressure Humidity
    00:00 +8°C° 0 mm 5 mps 763 mmHg 75%
    01:00 +8°C° 0 mm 5 mps 763 mmHg 73%
    02:00 +8°C° 0 mm 5 mps 763 mmHg 70%
    03:00 +8°C° 0 mm 5 mps 763 mmHg 69%
    04:00 +8°C° 0 mm 6 mps 763 mmHg 67%
    05:00 +7°C° 0 mm 6 mps 764 mmHg 65%
    06:00 +8°C° 0 mm 6 mps 764 mmHg 63%
    07:00 +8°C° 0 mm 6 mps 765 mmHg 61%
    08:00 +8°C° 0 mm 6 mps 765 mmHg 58%
    09:00 +9°C° 0 mm 6 mps 766 mmHg 54%
    10:00 +9°C° 0 mm 6 mps 766 mmHg 50%
    11:00 +10°C° 0 mm 7 mps 767 mmHg 46%
    12:00 +10°C° 0 mm 7 mps 767 mmHg 49%
    13:00 +10°C° 0 mm 7 mps 767 mmHg 51%
    14:00 +10°C° 0 mm 7 mps 767 mmHg 54%
    15:00 +9°C° 0 mm 6 mps 767 mmHg 56%
    16:00 +9°C° 0 mm 6 mps 767 mmHg 58%
    17:00 +8°C° 0 mm 6 mps 767 mmHg 61%
    18:00 +7°C° 0 mm 5 mps 768 mmHg 64%
    19:00 +7°C° 0 mm 5 mps 768 mmHg 68%
    20:00 +6°C° 0 mm 5 mps 769 mmHg 71%
    21:00 +6°C° 0 mm 5 mps 769 mmHg 71%
    22:00 +5°C° 0 mm 5 mps 769 mmHg 70%
    23:00 +5°C° 0 mm 5 mps 769 mmHg 69%

    28 March, Thursday

    Time Temperature Precipitation Wind Pressure Humidity
    00:00 +5°C° 0 mm 5 mps 769 mmHg 66%
    01:00 +5°C° 0 mm 5 mps 770 mmHg 63%
    02:00 +5°C° 0 mm 5 mps 770 mmHg 60%
    03:00 +3°C° 0 mm 5 mps 770 mmHg 61%
    04:00 +3°C° 0 mm 5 mps 770 mmHg 62%
    05:00 +3°C° 0 mm 6 mps 770 mmHg 63%
    06:00 +4°C° 0 mm 6 mps 770 mmHg 60%
    07:00 +4°C° 0 mm 6 mps 770 mmHg 57%
    08:00 +5°C° 0 mm 6 mps 771 mmHg 54%
    09:00 +6°C° 0 mm 7 mps 771 mmHg 52%
    10:00 +6°C° 0 mm 7 mps 771 mmHg 51%
    11:00 +8°C° 0 mm 7 mps 771 mmHg 49%
    12:00 +8°C° 0 mm 7 mps 771 mmHg 49%
    13:00 +7°C° 0 mm 8 mps 771 mmHg 49%
    14:00 +7°C° 0 mm 8 mps 770 mmHg 49%
    15:00 +6°C° 0 mm 8 mps 770 mmHg 50%
    16:00 +6°C° 0 mm 8 mps 770 mmHg 51%
    17:00 +5°C° 0 mm 8 mps 770 mmHg 52%
    18:00 +5°C° 0 mm 8 mps 770 mmHg 54%
    19:00 +4°C° 0 mm 8 mps 771 mmHg 56%
    20:00 +2°C° 0 mm 8 mps 771 mmHg 58%
    21:00 +2°C° 0 mm 8 mps 771 mmHg 58%
    22:00 +2°C° 0 mm 8 mps 771 mmHg 58%
    23:00 +2°C° 0 mm 8 mps 771 mmHg 58%

    29 March, Friday

    Time Temperature Precipitation Wind Pressure Humidity
    00:00 +2°C° 0 mm 8 mps 771 mmHg 58%
    01:00 +2°C° 0 mm 9 mps 771 mmHg 58%
    02:00 +2°C° 0 mm 9 mps 771 mmHg 58%
    03:00 +2°C° 0 mm 9 mps 771 mmHg 58%
    04:00 +1°C° 0 mm 9 mps 771 mmHg 59%
    05:00 +1°C° 0 mm 9 mps 771 mmHg 59%
    06:00 +2°C° 0 mm 9 mps 771 mmHg 58%
    07:00 +2°C° 0 mm 9 mps 771 mmHg 56%
    08:00 +3°C° 0 mm 9 mps 771 mmHg 54%
    09:00 +3°C° 0 mm 9 mps 771 mmHg 52%
    10:00 +5°C° 0 mm 9 mps 771 mmHg 49%
    11:00 +6°C° 0 mm 9 mps 771 mmHg 47%
    12:00 +6°C° 0 mm 9 mps 771 mmHg 48%
    13:00 +6°C° 0 mm 9 mps 770 mmHg 49%
    14:00 +7°C° 0 mm 9 mps 770 mmHg 50%
    15:00 +6°C° 0 mm 9 mps 770 mmHg 50%
    16:00 +6°C° 0 mm 9 mps 769 mmHg 51%
    17:00 +5°C° 0 mm 9 mps 769 mmHg 52%
    18:00 +5°C° 0 mm 9 mps 769 mmHg 55%
    19:00 +4°C° 0 mm 8 mps 769 mmHg 58%
    20:00 +2°C° 0 mm 8 mps 769 mmHg 60%
    21:00 +3°C° 0 mm 7 mps 769 mmHg 61%
    22:00 +3°C° 0 mm 7 mps 769 mmHg 61%
    23:00 +3°C° 0 mm 7 mps 769 mmHg 62%
    Show more